El Dorado, AR

8:48 AM CDT on May 25, 2017 (GMT -0500)
South Arkansas Regional At Goodwin

Weather History for KELD - February, 2014

Change the Weather History Date:

Friday, February 28, 2014

  Actual Average Record
Temperature  
Mean Temperature 42 °F 51 °F  
Max Temperature 50 °F 63 °F 84 °F (1940)
Min Temperature 34 °F 40 °F 17 °F (2002)
Degree Days  
Heating Degree Days 23 14  
Month to date heating degree days 591 486  
Since 1 July heating degree days 2607 2228  
Cooling Degree Days 0 0  
Month to date cooling degree days 0 4  
Year to date cooling degree days 0 6  
Moisture  
Dew Point 33 °F    
Average Humidity 62    
Maximum Humidity 80    
Minimum Humidity 44    
Precipitation  
Precipitation 0.01 in 0.17 in 1.42 in (1987)
Month to date precipitation 3.42 4.79  
Year to date precipitation 4.58 9.09  
Snow  
Snow 0.00 in - - ()
Month to date snowfall 1.1  
Since 1 July snowfall 1.1  
Snow Depth 0.00 in    
Sea Level Pressure  
Sea Level Pressure 29.96 in    
Wind  
Wind Speed 7 mph (ESE)    
Max Wind Speed 16 mph    
Max Gust Speed 21 mph    
Visibility 10 miles    
Events Rain    
T = Trace of Precipitation, MM = Missing Value Source: NWS Daily Summary

Daily Weather History Graph

Daily Weather History Graph

Search for Another Location

Airport or City:

Trip Planner

Search our weather history database for the weather conditions in past years. The results will help you decide how hot, cold, wet, or windy it might be!

Date:

Astronomy

Feb. 28, 2014 Rise Set
Actual Time 6:40 AM CST 6:07 PM CST
Civil Twilight 6:15 AM CST 6:32 PM CST
Nautical Twilight 5:46 AM CST 7:01 PM CST
Astronomical Twilight 5:18 AM CST 7:29 PM CST
Moon 5:54 AM CST (2/28) 5:44 PM CST (2/28)
Length of Visible Light 12h 16m
Length of Day
11h 26m
Waning Crescent, 1% of the Moon is Illuminated
Feb 28
Waning Crescent
Mar 1
New
Mar 8
First Quarter
Mar 16
Full
Mar 23
Last Quarter

Hourly Weather History & Observations

Time (CST) Temp. Windchill Dew Point Humidity Pressure Visibility Wind Dir Wind Speed Gust Speed Precip Events Conditions
12:53 AM 39.0 °F 35.7 °F 19.9 °F 46% 30.01 in 10.0 mi East 4.6 mph - N/A   Scattered Clouds
1:53 AM 39.0 °F 34.0 °F 19.9 °F 46% 30.00 in 10.0 mi SE 6.9 mph - N/A   Clear
2:53 AM 39.0 °F 36.8 °F 19.9 °F 46% 29.99 in 10.0 mi ESE 3.5 mph - N/A   Partly Cloudy
3:53 AM 37.9 °F 32.7 °F 19.9 °F 48% 29.99 in 10.0 mi SE 6.9 mph - N/A   Clear
4:53 AM 35.1 °F 31.0 °F 21.0 °F 57% 29.99 in 10.0 mi ESE 4.6 mph - N/A   Clear
5:53 AM 35.1 °F 30.1 °F 21.0 °F 57% 29.99 in 10.0 mi SE 5.8 mph - N/A   Clear
6:53 AM 34.0 °F 28.0 °F 21.0 °F 59% 29.99 in 10.0 mi ESE 6.9 mph - N/A   Clear
7:53 AM 39.0 °F 33.4 °F 21.9 °F 50% 29.99 in 10.0 mi SE 8.1 mph - N/A   Clear
8:53 AM 43.0 °F 37.7 °F 25.0 °F 49% 30.01 in 10.0 mi SSE 9.2 mph - N/A   Clear
9:53 AM 45.0 °F 39.7 °F 28.9 °F 53% 30.00 in 10.0 mi SE 10.4 mph - N/A   Overcast
10:53 AM 46.9 °F - 28.9 °F 50% 29.98 in 10.0 mi SSE 13.8 mph - N/A   Overcast
11:31 AM 46.0 °F 43.1 °F 34.0 °F 63% 29.98 in 9.0 mi SE 5.8 mph - 0.01 in Rain Light Rain
11:53 AM 45.0 °F 41.8 °F 37.0 °F 74% 29.96 in 10.0 mi ESE 5.8 mph - 0.01 in Rain Light Rain
12:53 PM 46.9 °F - 37.0 °F 68% 29.93 in 10.0 mi SE 12.7 mph 20.7 mph 0.00 in   Overcast
1:53 PM 48.0 °F - 37.0 °F 66% 29.90 in 10.0 mi SE 8.1 mph - N/A   Overcast
2:53 PM 48.0 °F - 39.0 °F 71% 29.91 in 10.0 mi ESE 8.1 mph - N/A   Overcast
3:53 PM 48.0 °F - 39.9 °F 74% 29.89 in 10.0 mi ESE 8.1 mph - N/A   Overcast
4:53 PM 48.0 °F - 39.9 °F 74% 29.89 in 10.0 mi East 6.9 mph - N/A   Overcast
5:53 PM 48.0 °F - 39.0 °F 71% 29.90 in 10.0 mi ENE 6.9 mph - N/A   Overcast
6:53 PM 48.0 °F - 39.9 °F 74% 29.91 in 10.0 mi ENE 6.9 mph - N/A   Overcast
7:53 PM 48.9 °F - 41.0 °F 74% 29.92 in 10.0 mi East 3.5 mph - N/A   Overcast
8:53 PM 48.9 °F - 42.1 °F 77% 29.94 in 10.0 mi East 3.5 mph - N/A   Overcast
9:53 PM 48.9 °F - 43.0 °F 80% 29.96 in 10.0 mi ENE 3.5 mph - N/A   Overcast
10:08 PM 48.9 °F - 43.0 °F 80% 29.96 in 10.0 mi NE 3.5 mph - N/A   Overcast
10:53 PM 48.0 °F - 43.0 °F 83% 29.97 in 10.0 mi NE 4.6 mph - N/A   Overcast
11:53 PM 48.9 °F - 43.0 °F 80% 29.98 in 10.0 mi Calm Calm - N/A   Overcast